Location: Newark
(44.4156°N, 12.1972°E)
Time: 10:25:58
(UTC+00:00)

STARLINK-1069 - Pass Details

Date: 30 January 2020
Orbit: 349 x 350 km, 53.0° (Epoch: 22 February)

Event Time Altitude Azimuth Distance (km) Brightness Sun altitude
Rises 18:08:38 0° 302° (WNW) 2,165 7.5 -20.0°
Reaches altitude 10° 18:10:40 10° 300° (WNW) 1,319 6.3 -20.4°
Enters shadow 18:13:03 51° 274° (W) 449 3.5 -20.8°
